Location: Breungeshain
(50.5000°N, 9.2000°E)
Time: 20:43:36
(UTC+00:00)

ISS - Pass Details

Date: 23 May 2017
Orbit: 401 x 408 km, 51.6° (Epoch: 25 June)

Event Time Altitude Azimuth Distance (km) Brightness Sun altitude
Rises 22:15:14 0° 247° (WSW) 2,334 0.0 -17.3°
Reaches altitude 10° 22:17:19 10° 246° (WSW) 1,474 -1.1 -17.4°
Maximum altitude 22:20:37 74° 162° (SSE) 431 -4.0 -17.5°
Drops below altitude 10° 22:23:55 10° 77° (ENE) 1,474 -1.0 -17.7°
Sets 22:26:00 0° 75° (ENE) 2,335 0.1 -17.8°
